You are listening to:
ZBAA Tower - Beijing, China

ZBAA 251630Z 17002MPS CAVOK 17/13 Q1010 NOSIG

If stream doesn't start automatically press the play button
If stream stops then reload player then press play